Change the Weather History Date:

Saturday, March 9, 2013

  Actual Average (KTAD) Record (KTAD)
Temperature  
Mean Temperature 37 °F 41 °F  
Max Temperature 48 °F 56 °F 82 °F (1989)
Min Temperature 26 °F 25 °F 7 °F (1969)
Degree Days  
Heating Degree Days 28 24  
Month to date heating degree days 229  
Since 1 July heating degree days 4351  
Cooling Degree Days 0 0  
Month to date cooling degree days 0  
Year to date cooling degree days 0  
Moisture  
Dew Point 23 °F    
Average Humidity 75    
Maximum Humidity 93    
Minimum Humidity 16    
Precipitation  
Precipitation 0.10 in 0.03 in 0.39 in (1979)
Month to date precipitation 0.24  
Year to date precipitation 1.13  
Sea Level Pressure  
Sea Level Pressure 29.71 in    
Wind  
Wind Speed 14 mph (NNW)    
Max Wind Speed 31 mph    
Max Gust Speed 44 mph    
T = Trace of Precipitation, MM = Missing Value Source: NWS Daily Summary

Daily Weather History Graph

Daily Weather History Graph

Search for Another Location

Airport or City:

Trip Planner

Search our weather history database for the weather conditions in past years. The results will help you decide how hot, cold, wet, or windy it might be!

Date:

Astronomy

Mar. 09, 2013 Rise Set
Actual Time 6:17 AM MST 6:00 PM MST
Civil Twilight 5:51 AM MST 6:26 PM MST
Nautical Twilight 5:21 AM MST 6:56 PM MST
Astronomical Twilight 4:51 AM MST 7:26 PM MST
Moon 4:40 AM MST (3/9) 4:06 PM MST (3/9)
Length of Visible Light 12h 34m
Length of Day
11h 43m
Waning Crescent, 5% of the Moon is Illuminated
Mar 9
Waning Crescent
Mar 11
New
Mar 19
First Quarter
Mar 27
Full
Apr 2
Last Quarter

Hourly Weather History & Observations

Time (MST) Temp. Windchill Dew Point Humidity Pressure Visibility Wind Dir Wind Speed Gust Speed Precip Events Conditions
12:01 AM 37.4 °F 32.1 °F 35.6 °F 93% 29.70 in - South 6.9 mph - N/A   Overcast
12:28 AM 35.6 °F 28.0 °F 33.8 °F 93% 29.69 in - SSE 10.4 mph - N/A   Mostly Cloudy
12:53 AM 36.0 °F 30.3 °F 34.0 °F 93% 29.55 in - South 6.9 mph - N/A   Mostly Cloudy
1:53 AM 33.1 °F 26.1 °F 30.0 °F 89% 29.54 in - South 8.1 mph - N/A   Partly Cloudy
2:53 AM 30.9 °F 23.5 °F 28.0 °F 89% 29.54 in - SW 8.1 mph - N/A   Clear
3:53 AM 32.0 °F 24.8 °F 28.9 °F 88% 29.54 in - SW 8.1 mph - N/A   Mostly Cloudy
4:53 AM 33.1 °F 27.7 °F 28.9 °F 85% 29.54 in - WSW 5.8 mph - N/A   Overcast
5:53 AM 36.0 °F 28.0 °F 21.9 °F 57% 29.57 in - West 11.5 mph - N/A   Overcast
6:53 AM 36.0 °F 31.1 °F 19.0 °F 50% 29.55 in - WSW 5.8 mph - N/A   Clear
7:53 AM 36.0 °F 27.5 °F 27.0 °F 70% 29.56 in - South 12.7 mph - N/A   Clear
8:23 AM 39.2 °F 28.3 °F 8.6 °F 28% 29.61 in - West 25.3 mph 33.4 mph N/A   Clear
8:53 AM 42.1 °F 32.6 °F 3.9 °F 21% 29.53 in - WSW 23.0 mph 34.5 mph N/A   Clear
9:53 AM 44.1 °F 38.6 °F 6.1 °F 21% 29.51 in - WSW 10.4 mph 19.6 mph N/A   Clear
10:53 AM 46.0 °F 39.6 °F 3.9 °F 18% 29.49 in - West 15.0 mph 24.2 mph N/A   Clear
11:53 AM 48.9 °F - 3.9 °F 16% 29.45 in - Variable 6.9 mph - N/A   Clear
12:43 PM 39.2 °F 28.3 °F 17.6 °F 42% 29.58 in - NW 25.3 mph 32.2 mph N/A   Overcast
12:53 PM 37.0 °F 25.6 °F 21.9 °F 54% 29.53 in - NW 24.2 mph 32.2 mph 0.00 in Rain Light Rain
1:13 PM 32.0 °F 20.8 °F 26.6 °F 80% 29.61 in - WNW 17.3 mph 27.6 mph 0.00 in Snow Snow
1:53 PM 30.9 °F 17.8 °F 26.1 °F 82% 29.63 in - WNW 23.0 mph - 0.00 in Snow Light Snow
2:45 PM 30.2 °F 20.8 °F 26.6 °F 86% 29.67 in - West 11.5 mph - 0.00 in Snow Light Snow
2:53 PM 30.9 °F 21.7 °F 28.0 °F 89% 29.68 in - WNW 11.5 mph - 0.00 in Snow Light Snow
3:05 PM 30.2 °F 23.4 °F 28.4 °F 93% 29.68 in - NW 6.9 mph - 0.00 in Snow Snow
3:38 PM 32.0 °F 24.2 °F 28.4 °F 87% 29.70 in - NNE 9.2 mph 25.3 mph 0.01 in Snow Light Snow
3:53 PM 32.0 °F 22.5 °F 28.0 °F 85% 29.71 in - North 12.7 mph - 0.01 in Snow Light Snow
4:41 PM 30.2 °F 21.3 °F 28.4 °F 93% 29.75 in - NNE 10.4 mph - 0.02 in Snow Snow
4:48 PM 30.2 °F 18.5 °F 28.4 °F 93% 29.75 in - North 17.3 mph 21.9 mph 0.02 in Snow Snow
4:53 PM 30.9 °F 19.4 °F 27.0 °F 85% 29.75 in - North 17.3 mph 24.2 mph 0.02 in Snow Light Snow
4:55 PM 30.2 °F 19.8 °F 26.6 °F 86% 29.75 in - North 13.8 mph 24.2 mph 0.00 in Snow Light Snow
5:34 PM 28.4 °F 15.4 °F 26.6 °F 93% 29.78 in - NNE 19.6 mph 25.3 mph 0.02 in Snow Snow
5:53 PM 28.0 °F 18.1 °F 26.1 °F 92% 29.80 in - NNE 11.5 mph 20.7 mph 0.02 in Snow Snow
6:46 PM 28.4 °F 13.5 °F 23.0 °F 80% 29.84 in - North 26.5 mph 41.4 mph 0.03 in Snow Light Snow
6:53 PM 28.9 °F 14.3 °F 23.0 °F 78% 29.84 in - North 26.5 mph 41.4 mph 0.03 in Snow Light Snow
7:53 PM 28.0 °F 13.6 °F 24.1 °F 85% 29.87 in - NNE 24.2 mph 32.2 mph 0.00 in Snow Light Snow
8:11 PM 28.4 °F 14.1 °F 24.8 °F 86% 29.87 in - North 24.2 mph 33.4 mph 0.01 in Snow Snow
8:21 PM 28.4 °F 12.5 °F 24.8 °F 86% 29.88 in - North 31.1 mph 41.4 mph 0.01 in Snow Snow
8:32 PM 28.4 °F 13.3 °F 23.0 °F 80% 29.89 in - North 27.6 mph 38.0 mph 0.01 in Snow Light Snow
8:53 PM 28.9 °F 14.5 °F 23.0 °F 78% 29.88 in - North 25.3 mph 43.7 mph 0.01 in Snow Light Snow
9:16 PM 28.4 °F 15.4 °F 23.0 °F 80% 29.92 in - NNE 19.6 mph 25.3 mph 0.00 in Snow Light Snow
9:45 PM 26.6 °F 10.8 °F 24.8 °F 93% 29.93 in - NNE 27.6 mph 35.7 mph 0.01 in Snow Snow
9:53 PM 26.1 °F 9.8 °F 23.0 °F 88% 29.91 in - NNE 28.8 mph 42.6 mph 0.01 in Snow Snow
10:20 PM 26.6 °F 12.4 °F 23.0 °F 86% 29.93 in - North 21.9 mph 31.1 mph 0.00 in Snow Light Snow
10:53 PM 27.0 °F 12.8 °F 19.0 °F 72% 29.91 in - North 21.9 mph 31.1 mph 0.00 in   Overcast
11:20 PM 26.6 °F 14.7 °F 17.6 °F 69% 29.96 in - NNE 15.0 mph 24.2 mph 0.00 in   Mostly Cloudy
11:53 PM 27.0 °F 15.2 °F 17.1 °F 66% 29.92 in - NNE 15.0 mph 31.1 mph 0.00 in   Overcast